sat.trackr.live / text

‹ back to catalog

STARLINK-3622

NORAD 51768 · 2022-017A

PAYLOAD ACTIVE UNKNOWN

§ Identity

Operator
Country
US
Launch date
2022-02-25
Launch site
AFWTR
Launch vehicle
Mass (kg)
RCS (m²)

Purposes: comms

External: N2YO · Heavens-Above · Gunter

§ Orbital elements

Epoch: 2026-05-24T20:42:57.367008Z

Period
95.44 min
Inclination
53.2166°
Eccentricity
0.0001468
Mean motion
15.08842706 rev/d
Perigee alt
538.7 km
Apogee alt
540.8 km
Semi-major
6,917.9 km
B*
4.3717e-5
RAAN
357.1651°
Arg perigee
94.4730°
Mean anomaly
265.6430°
Rev number
23,554

§ Raw data

STARLINK-36221 51768U 22017A   26144.86316397  .00000408  00000+0  43717-4 0  99962 51768  53.2166 357.1651 0001468  94.4730 265.6430 15.08842706235542

JSON: /api/v1/satellites/51768 · /tle

For live sub-satellite position, see the globe view (requires WebGL).

§ Visibility from observer

Set your observer location to see the next 7 days of passes ≥ 10°. The values pass through the URL so the page stays shareable.

No JS? Fill the form by hand. The geolocation button needs JavaScript.